Weather in Cosenza

Italy     39°18′34″N   16°15′02″E
temp.,
°C
wind,
m/s
gust,
m/s
humid.,
%
clouds,
%
prec.,
mm/h
press.,
hPa
HPBL,
m
22 october, fri
fri2223:00+12ese22775 0.0 102123
02:00+12ese228030 0.0 102022
05:00+12ese227650 0.0 101923
08:00+13ese2273100 0.0 101930
11:00+20sw225193 0.0 1019848
14:00+21w2248100 0.0 10181108
17:00+19w1162100 0.0 101816
20:00+14ese227196 0.0 101918
23 october, sat
sat2323:00+14ese226687 0.0 102018
02:00+14ese226244 0.0 102018
05:00+14e22645 0.0 101920
08:00+15ese2266100 0.0 101926
11:00+21sw114694 0.0 1020731
14:00+22w2243100 0.0 10181246
17:00+20wnw115781 0.0 101827
20:00+16ene2269100 0.0 102023
24 october, sun
sun2423:00+14ene2275100 0.3 102127
02:00+14ene1185100 1.3 102125
05:00+14ne2392100 3.9 102164
08:00+14ne3594100 5.0 1021157
11:00+17ne3478100 0.4 1020377
14:00+16ne4579100 0.7 1020383
17:00+14ne4587100 0.3 1019216
20:00+13ne348995 0.4 1020149
25 october, mon
mon2523:00+13ne3592100 0.1 1020204
02:00+12ne4790100 0.1 1019458
05:00+12ne4889100 0.1 1018476
08:00+12ne4889100 0.9 1017457
11:00+12nne4796100 7.7 1017319
14:00+13ene2497100 30.3 1016221
17:00+13ene2399100 21.4 1016194
20:00+13ene2298100 23.6 101793
26 october, tue
tue2623:00+14ne2399100 23.6 1017130
02:00+14ene1298100 30.6 101772
05:00+13ne1299100 8.8 1016103
08:00+13ene1299100 12.3 1017160
11:00+14ne0299100 3.4 1017122
14:00+14ene0197100 5.9 101680
17:00+14n0299100 6.3 1016125
20:00+13ne1199100 16.8 101678